User: anonymous   Login
Location: Sweet Grass
(48.9965°N, 111.9649°W)
Time: 12:19:28
(UTC+00:00)
Language:

TIGRISAT - Orbit

View from above orbital plane
View from above orbital plane
View from above satellite
View from above satellite

Ground track
Ground track

The orbit data is extracted from the following two-line orbital elements,

1 40043U 14033AK  23091.73241289  .00003223  00000-0  46196-3 0  9992
2 40043  97.6615 270.6655 0056929 302.4417  57.1295 14.76108225472132
Epoch (UTC): 01 April 2023 17:34:40
Eccentricity: 0.0056929
inclination: 97.6615°
perigee height: 601 km
apogee height: 681 km
right ascension of ascending node: 270.6655°
argument of perigee: 302.4417°
revolutions per day: 14.76108225
mean anomaly at epoch: 57.1295°
orbit number at epoch: 47213

The dashed part of the orbit path shows where the satellite is in the earth's shadow,  

DLR